Simultaneous Nadir Overpasses (SNOs) Predictions

Prediction of SNOs between METOP-A and TERRA Satellite Orbit:

Table of predicted SNOs for the next 14.0 days since TLE Epoch: 4/14/2018
Index Date (METOP-A) Time (METOP-A) Lat,Lon (METOP-A) SZA (METOP-A ) Date (TERRA) Time (TERRA) Lat,Lon (TERRA) SZA (TERRA ) Distance(km) Time Diff (sec)
1 04/16/2018 21:06:42 81.41, -87.32 74.12 04/16/2018 21:06:46 81.40, -87.43 74.11 2.05 4
2 04/16/2018 21:57:22 -81.41, 80.44 105.84 04/16/2018 21:56:12 -81.42, 80.56 105.86 2.11 70
3 04/19/2018 16:41:00 81.41, -20.88 73.17 04/19/2018 16:41:04 81.40, -20.91 73.16 0.77 4
4 04/19/2018 17:31:41 -81.41, 146.52 106.84 04/19/2018 17:30:31 -81.40, 146.70 106.86 3.17 70
5 04/22/2018 12:15:17 81.41, 45.55 72.23 04/22/2018 12:15:21 81.41, 45.59 72.24 0.72 4
6 04/22/2018 13:05:57 -81.41,-146.63 107.72 04/22/2018 13:04:48 -81.41,-146.78 107.78 2.45 69
7 04/25/2018 07:49:35 81.41, 111.96 71.32 04/25/2018 07:49:39 81.41, 112.08 71.34 2.10 4




NCC Satellite Simultaneous Nadir Overpasses (SNOs) Prediction Service
